User: anonymous   Login
Location: *
(46.1866°S, 178.5290°W)
Time: 03:35:18
(UTC+00:00)
Language:

Cosmos 1461 - Orbit

View from above orbital plane
View from above orbital plane
View from above satellite
View from above satellite

Ground track
Ground track

The orbit data is extracted from the following two-line orbital elements,

1 14064U 83044A   21207.59991516  .00000930  00000-0  91102-4 0  9990
2 14064  65.0016 316.4891 0098589 181.2154 178.8739 14.95274709947504
Epoch (UTC): 26 July 2021 14:23:52
Eccentricity: 0.0098589
inclination: 65.0016°
perigee height: 513 km
apogee height: 650 km
right ascension of ascending node: 316.4891°
argument of perigee: 181.2154°
revolutions per day: 14.95274709
mean anomaly at epoch: 178.8739°
orbit number at epoch: 94750

The dashed part of the orbit path shows where the satellite is in the earth's shadow,  

DLR